Regional Weather Roundup
Issued by NWS Goodland, KS

Home | Current Version | Previous Version | Text Only | Print | Product List | Glossary Off
Versions: 1 2 3 4 5 6 7 8 9 10 11 12 13 14 15 16 17 18 19 20 21 22 23 24 25 26 27 28 29 30 31 32 33 34 35 36 37 38 39 40 41 42 43 44 45 46 47 48 49 50

000
ASUS43 KGLD 291059
RWRGLD

GOODLAND FORECAST AREA HOURLY WEATHER ROUNDUP
NATIONAL WEATHER SERVICE GOODLAND KS
500 AM MDT THU SEP 29 2016

...OFFICIAL OBSERVATIONS...

CITY           SKY/WX    TMP DP  RH WIND       PRES   REMARKS
GOODLAND KS    CLEAR     43  38  82 S7        30.40R
HILL CITY KS   CLOUDY    41  39  93 W3        30.41R
IMPERIAL NEB   CLOUDY    42  36  79 SE5       30.40R
MCCOOK NEB     CLOUDY    39  35  86 E3        30.41R
AKRON CO       CLEAR     51  39  63 S10       30.37F
BURLINGTON CO  CLEAR     47  38  71 S10       30.40S
LIMON CO       CLOUDY    40  37  89 S3        30.42S
$$

...UNOFFICIAL OBSERVATIONS...

CITY           SKY/WX    TMP DP  RH WIND       PRES   REMARKS
COLBY KS       CLEAR     39  37  93 CALM      30.42R
LENORA KS        N/A     47  32  56 MISG        N/A
NORTON KS      CLEAR     43  36  75 CALM      30.40S
SHARON SPRINGS   N/A     46  40  79 S5          N/A
KIT CARSON CO    N/A     46  38  73 CALM        N/A
$$




USA.gov is the U.S. government's official web portal to all federal, state and local government web resources and services.